[[{"header":{"parameterUnit":"m.s-1","parameterCategory":2,"la1":30.2991,"la2":30.254,"lo1":-89.0895,"lo2":-89.0444,"dy":0.0017,"dx":0.0017,"nx":28,"ny":28,"refTime":"2024-05-12T09:00:00:Z","depth":"0","parameterNumber":2,"parameterNumberName":"U-component_of_CURRENTS"},"data":[0,0,0,0,0,0,0,0,0,0,0,0,0,0,0,0,0,0,0,0,0,0,0,0,0,0,0,0,0,0,0,0,0,0,0,0,0,0,0,0,0,0,0,0,0,0,0,0,0,0,0,0,0,0,0,0,0,0,-0.1699,-0.1699,0,-0.173,-0.1731,-0.1731,-0.1725,-0.1725,-0.1724,-0.1724,-0.1732,-0.1733,-0.1733,0,0,0,0,0,0,0,0,0,0,0,0,0,-0.1609,-0.1611,-0.1699,-0.1699,-0.17,-0.173,-0.1731,-0.1731,-0.1725,-0.1725,-0.1724,-0.1724,-0.1732,-0.1733,-0.1734,0,0,0,0,0,0,0,0,0,0,0,0,0,-0.1643,-0.1612,-0.1699,-0.1703,-0.1703,-0.173,-0.1731,-0.1731,-0.1725,-0.1724,-0.1724,-0.1723,-0.1732,-0.1733,-0.1734,-0.1749,0,0,-0.1736,-0.1736,0,0,0,0,0,0,0,0,-0.1641,-0.1646,-0.1701,-0.1702,-0.1703,-0.1725,-0.1702,-0.1737,-0.1725,-0.1714,-0.1724,-0.1723,-0.173,-0.1731,-0.1735,-0.1749,-0.175,-0.1736,-0.1737,-0.1737,-0.1737,0,0,0,0,0,0,0,-0.1639,-0.1645,-0.1709,-0.1702,-0.1703,-0.1695,-0.1699,-0.1709,-0.1722,-0.1715,-0.1715,-0.1723,-0.173,-0.1734,-0.1735,-0.175,-0.1736,-0.1737,-0.1737,-0.1738,-0.1822,-0.1824,0,0,0,0,0,0,-0.1642,-0.1643,-0.1708,-0.171,-0.1673,-0.1697,-0.1701,-0.1717,-0.1723,-0.1724,-0.1723,-0.1723,-0.1733,-0.1734,-0.1735,-0.177,-0.1737,-0.1738,-0.1738,-0.182,-0.1822,-0.1824,0,0,0,0,0,0,-0.164,-0.1648,-0.1707,-0.1678,-0.1685,-0.17,-0.1716,-0.1718,-0.1722,-0.173,-0.173,-0.1727,-0.1733,-0.1734,-0.1757,-0.1769,-0.1738,-0.1739,-0.1818,-0.1821,-0.1823,-0.1828,0,0,0,0,0,0,-0.1638,-0.1647,-0.1654,-0.1679,-0.1687,-0.1725,-0.1717,-0.1719,-0.1729,-0.1728,-0.1733,-0.1733,-0.1732,-0.1756,-0.1758,-0.177,-0.174,-0.1816,-0.1819,-0.1822,-0.1826,-0.1831,-0.1835,0,0,0,0,0,-0.1634,-0.1649,-0.1654,-0.1662,-0.1698,-0.1726,-0.1729,-0.1735,-0.1729,-0.1735,-0.1746,-0.1733,-0.1778,-0.1758,-0.176,-0.1772,-0.1814,-0.1818,-0.1822,-0.1824,-0.183,-0.1835,0,0,0,0,0,0,-0.1612,-0.1651,-0.1657,-0.1682,-0.1703,-0.1726,-0.1731,-0.1737,-0.175,-0.1748,-0.175,-0.1752,-0.1778,-0.1783,-0.176,-0.1811,-0.1796,-0.1801,-0.1797,-0.1803,-0.1807,-0.1797,-0.174,0,0,0,0,0,-0.1612,-0.1633,-0.1666,-0.1684,-0.1695,-0.1712,-0.1722,-0.173,-0.1748,-0.1752,-0.1759,-0.1775,-0.1797,-0.1804,-0.1822,-0.1845,-0.1858,-0.1859,-0.1863,-0.1867,-0.1864,-0.1887,-0.1892,-0.1837,-0.1837,-0.1837,0,0,-0.1607,-0.1632,-0.1642,-0.168,-0.1693,-0.1719,-0.1716,-0.1735,-0.1757,-0.1752,-0.1776,-0.1788,-0.1809,-0.1837,-0.1849,-0.184,-0.1898,-0.1872,-0.1874,-0.1869,-0.1892,-0.1897,-0.1901,-0.184,-0.1839,-0.1839,0,0,-0.161,-0.1631,-0.1648,-0.1672,-0.1701,-0.1718,-0.1726,-0.1753,-0.1763,-0.1793,-0.18,-0.1818,-0.1849,-0.1864,-0.1878,-0.192,-0.1921,-0.1931,-0.194,-0.1963,-0.1967,-0.197,-0.2021,-0.2029,-0.1932,-0.1932,-0.1932,0,-0.16,-0.1632,-0.1656,-0.1681,-0.1701,-0.172,-0.1744,-0.1764,-0.1796,-0.1809,-0.1803,-0.1855,-0.1862,-0.1902,-0.1916,-0.1926,-0.1949,-0.1911,-0.1966,-0.1969,-0.1973,-0.2023,-0.2032,-0.1933,-0.1933,-0.1933,-0.1932,0,-0.162,-0.1645,-0.1657,-0.1699,-0.1723,-0.1745,-0.1783,-0.1804,-0.1818,-0.1837,-0.1874,-0.1889,-0.1915,-0.1928,-0.1931,-0.1967,-0.1982,-0.1966,-0.1943,-0.1978,-0.203,-0.2039,-0.1934,-0.1933,-0.1933,-0.1933,0,0,-0.1593,-0.1658,-0.1659,-0.1681,-0.1734,-0.1755,-0.1798,-0.1839,-0.1872,-0.1888,-0.1928,-0.195,-0.1947,-0.1963,-0.1971,-0.1988,-0.2036,-0.1985,-0.1986,-0.202,-0.2112,-0.2128,-0.214,-0.2024,-0.2025,-0.2026,-0.2148,0,-0.1595,-0.1639,-0.1676,-0.1717,-0.1741,-0.1784,-0.1828,-0.1869,-0.1904,-0.195,-0.1961,-0.1997,-0.1967,-0.1981,-0.1992,-0.203,-0.2055,-0.2006,-0.2086,-0.2089,-0.2085,-0.2148,-0.2067,-0.2168,-0.2156,-0.2157,-0.2159,0,-0.1594,-0.1626,-0.1662,-0.1732,-0.1748,-0.1777,-0.1847,-0.1888,-0.1959,-0.1986,-0.2011,-0.2033,-0.2065,-0.2033,-0.2091,-0.2062,-0.2084,-0.2106,-0.2111,-0.2125,-0.2121,-0.2128,-0.2184,-0.2145,-0.2172,-0.2171,-0.217,0,-0.1551,-0.1615,-0.1639,-0.1662,-0.1744,-0.1767,-0.1809,-0.1886,-0.1932,-0.1999,-0.2048,-0.2079,-0.2115,-0.2128,-0.2165,-0.2132,-0.2245,-0.2205,-0.2247,-0.225,-0.2195,-0.2191,-0.2204,-0.2245,-0.2245,-0.2245,-0.2244,0,-0.1535,-0.1555,-0.1617,-0.1631,-0.1673,-0.1736,-0.1795,-0.1845,-0.1933,-0.2006,-0.2048,-0.2119,-0.2138,-0.2207,-0.2208,-0.2271,-0.2277,-0.2267,-0.2282,-0.2201,-0.2196,-0.217,-0.2178,-0.2249,-0.2248,-0.2247,-0.2247,0,-0.1481,-0.1524,-0.1555,-0.1628,-0.1651,-0.1673,-0.1776,-0.183,-0.1914,-0.2016,-0.2039,-0.2159,-0.225,-0.2292,-0.2355,-0.2346,-0.2363,-0.2407,-0.2328,-0.2331,-0.2307,-0.2319,-0.2374,-0.2314,-0.2469,-0.247,-0.2471,0,-0.1459,-0.1465,-0.153,-0.1553,-0.1581,-0.1635,-0.1689,-0.1789,-0.1862,-0.2047,-0.2102,-0.2234,-0.2332,-0.2452,-0.246,-0.25,-0.2432,-0.2442,-0.2348,-0.2315,-0.2339,-0.2315,-0.2257,-0.2296,-0.2295,-0.2295,-0.2294,0,-0.1405,-0.1422,-0.1447,-0.1495,-0.1538,-0.1605,-0.169,-0.1748,-0.1896,-0.2005,-0.2172,-0.2269,-0.2421,-0.2457,-0.2517,-0.2498,-0.2377,-0.2435,-0.2405,-0.2219,-0.2189,-0.2134,-0.2232,-0.229,-0.229,-0.2291,-0.2291,-0.2291,-0.1351,-0.1354,-0.1385,-0.1428,-0.1484,-0.1556,-0.1586,-0.1716,-0.1827,-0.1996,-0.2158,-0.231,-0.2396,-0.2476,-0.2481,-0.2409,-0.2402,-0.23,-0.2329,-0.2316,-0.2217,-0.2331,-0.2396,-0.2397,-0.2398,-0.2398,-0.2399,0,-0.1281,-0.1296,-0.1328,-0.1377,-0.1412,-0.1467,-0.1573,-0.1603,-0.1711,-0.193,-0.208,-0.229,-0.2331,-0.2388,-0.239,-0.2318,-0.2212,-0.2224,-0.2134,-0.2083,-0.2181,-0.2126,-0.2129,-0.2129,-0.2129,-0.2129,-0.2129,-0.2129,-0.1241,-0.1236,-0.1259,-0.1281,-0.1319,-0.1339,-0.1374,-0.1442,-0.1563,-0.1771,-0.1968,-0.2177,-0.2251,-0.2449,-0.2364,-0.2246,-0.2147,-0.2089,-0.2089,-0.2122,-0.2128,-0.2135,-0.208,-0.2074,-0.2074,-0.1881,-0.188,-0.1879]},{"header":{"parameterUnit":"m.s-1","parameterCategory":2,"la1":30.2991,"la2":30.254,"lo1":-89.0895,"lo2":-89.0444,"dy":0.0017,"dx":0.0017,"nx":28,"ny":28,"refTime":"2024-05-12T09:00:00:Z","depth":"0","parameterNumber":3,"parameterNumberName":"V-component_of_CURRENTS"},"data":[0,0,0,0,0,0,0,0,0,0,0,0,0,0,0,0,0,0,0,0,0,0,0,0,0,0,0,0,0,0,0,0,0,0,0,0,0,0,0,0,0,0,0,0,0,0,0,0,0,0,0,0,0,0,0,0,0,0,-0.0071,-0.007,0,0.0048,0.0049,0.0051,0.0119,0.012,0.012,0.012,0.024,0.0242,0.0245,0,0,0,0,0,0,0,0,0,0,0,0,0,-0.0178,-0.0176,-0.0072,-0.007,-0.0069,0.0048,0.0049,0.0051,0.0119,0.012,0.012,0.012,0.0239,0.0242,0.0246,0,0,0,0,0,0,0,0,0,0,0,0,0,-0.0102,-0.0176,-0.0072,-0.0021,-0.0015,0.0047,0.005,0.0052,0.0119,0.012,0.012,0.012,0.0237,0.0242,0.0246,0.0268,0,0,0.026,0.0262,0,0,0,0,0,0,0,0,-0.0106,-0.0098,-0.003,-0.0024,-0.0018,0.0069,0.0056,0.0124,0.0119,0.0069,0.012,0.012,0.0182,0.0191,0.0213,0.0273,0.0278,0.026,0.0263,0.0265,0.0266,0,0,0,0,0,0,0,-0.0112,-0.0103,-0.0024,-0.0028,-0.0021,0.0017,0.0028,0.0069,0.0122,0.0073,0.0078,0.0091,0.0185,0.0209,0.0217,0.028,0.026,0.0264,0.0267,0.0269,0.036,0.036,0,0,0,0,0,0,-0.0131,-0.0108,-0.0027,-0.002,-0.0063,0.0019,0.0031,0.0041,0.0122,0.0135,0.009,0.0093,0.0201,0.0211,0.0221,0.0248,0.0265,0.0269,0.0272,0.036,0.036,0.036,0,0,0,0,0,0,-0.0134,-0.0125,-0.0032,-0.0061,-0.0047,0.002,0.0031,0.0043,0.0068,0.0135,0.0148,0.0102,0.0202,0.0215,0.0255,0.0253,0.0271,0.0275,0.036,0.036,0.036,0.0303,0,0,0,0,0,0,-0.0137,-0.0127,-0.0128,-0.0063,-0.0046,-0.0001,0.0031,0.0045,0.0075,0.008,0.015,0.0161,0.0203,0.0248,0.026,0.0259,0.0279,0.0361,0.036,0.036,0.0305,0.03,0.0296,0,0,0,0,0,-0.0142,-0.0148,-0.0129,-0.012,-0.005,-0.0002,0.001,0.006,0.0075,0.0083,0.0129,0.0159,0.0253,0.0252,0.0265,0.0266,0.0361,0.036,0.036,0.0307,0.0301,0.0297,0,0,0,0,0,0,-0.0193,-0.014,-0.0118,-0.0107,-0.0061,0.001,0.0022,0.0054,0.0098,0.0101,0.0161,0.0176,0.0208,0.0243,0.024,0.029,0.031,0.0312,0.0265,0.026,0.0256,0.0251,0.0282,0,0,0,0,0,-0.0207,-0.0196,-0.0137,-0.0126,-0.0107,-0.0045,-0.002,0.0013,0.0062,0.0082,0.0131,0.0178,0.0216,0.0242,0.0281,0.0313,0.0347,0.032,0.0316,0.0312,0.0316,0.0361,0.0362,0.0358,0.0358,0.0358,0,0,-0.0223,-0.0191,-0.0185,-0.0136,-0.0096,-0.0073,-0.0029,0.0004,0.0024,0.0087,0.0124,0.0164,0.022,0.0253,0.027,0.0284,0.0329,0.0311,0.0307,0.0314,0.0361,0.0361,0.0362,0.0357,0.0357,0.0357,0,0,-0.025,-0.0223,-0.0224,-0.0188,-0.0136,-0.0097,-0.0093,-0.0028,0.0001,0.004,0.0086,0.0126,0.0188,0.0231,0.0259,0.0256,0.0301,0.0262,0.0245,0.0288,0.0289,0.029,0.0325,0.033,0.0265,0.0265,0.0265,0,-0.0273,-0.0262,-0.0216,-0.0202,-0.0178,-0.0115,-0.0106,-0.0067,0.0003,0.0026,0.004,0.0137,0.018,0.023,0.0227,0.0248,0.0276,0.0259,0.0283,0.0285,0.0287,0.0323,0.0329,0.0262,0.0262,0.0263,0.0263,0,-0.0292,-0.0283,-0.0279,-0.0243,-0.0213,-0.0194,-0.0135,-0.0108,-0.0071,-0.0024,0.0028,0.0093,0.0152,0.0168,0.0199,0.0236,0.0251,0.0267,0.0294,0.0284,0.0322,0.033,0.0258,0.0259,0.026,0.026,0,0,-0.0338,-0.0304,-0.03,-0.0296,-0.0233,-0.0213,-0.0182,-0.0133,-0.0115,-0.0048,-0.0015,0.0057,0.0098,0.0132,0.0179,0.0221,0.0255,0.0246,0.025,0.0278,0.0345,0.0383,0.0395,0.0274,0.0275,0.0276,0.0362,0,-0.0365,-0.0365,-0.0333,-0.033,-0.0323,-0.0263,-0.024,-0.0186,-0.0135,-0.009,-0.0011,0.0034,0.0083,0.0105,0.0157,0.0232,0.0274,0.0231,0.0354,0.0358,0.0391,0.0405,0.042,0.05,0.037,0.0371,0.0372,0,-0.0389,-0.0386,-0.0393,-0.0376,-0.0368,-0.0355,-0.0307,-0.028,-0.0198,-0.016,-0.0088,-0.0023,0.006,0.0089,0.0227,0.0196,0.0264,0.0322,0.0327,0.039,0.041,0.0492,0.0519,0.0694,0.0384,0.0383,0.0382,0,-0.0437,-0.0429,-0.0442,-0.043,-0.0397,-0.039,-0.037,-0.0298,-0.0284,-0.0201,-0.0182,-0.0062,-0.0015,0.0098,0.023,0.0226,0.0374,0.0385,0.0485,0.0488,0.0541,0.0547,0.0752,0.0472,0.0472,0.0472,0.0472,0,-0.0474,-0.0484,-0.0469,-0.0473,-0.0492,-0.0443,-0.0448,-0.0406,-0.0354,-0.0348,-0.0226,-0.0191,-0.0013,0.0098,0.0218,0.0383,0.0371,0.0491,0.0519,0.052,0.0523,0.0711,0.0783,0.0475,0.0474,0.0474,0.0473,0,-0.0518,-0.0508,-0.0528,-0.0515,-0.0516,-0.0526,-0.0517,-0.0523,-0.0459,-0.0448,-0.0429,-0.0284,-0.0131,0.0052,0.0239,0.036,0.0614,0.0567,0.0556,0.0582,0.0842,0.0908,0.1115,0.1192,0.0699,0.0701,0.0702,0,-0.0542,-0.0555,-0.0568,-0.0596,-0.0595,-0.0608,-0.0625,-0.058,-0.0584,-0.051,-0.0512,-0.0357,-0.0253,0.0063,0.0323,0.0564,0.0676,0.0708,0.0711,0.0875,0.097,0.1001,0.1052,0.0754,0.0756,0.0757,0.0758,0,-0.0586,-0.0589,-0.0607,-0.0667,-0.07,-0.0742,-0.0757,-0.0777,-0.0734,-0.072,-0.0666,-0.0574,-0.0232,0.0082,0.043,0.0569,0.0836,0.0742,0.0923,0.1047,0.1085,0.1164,0.0672,0.077,0.0769,0.0768,0.0768,0.0767,-0.0619,-0.0648,-0.0683,-0.0743,-0.0799,-0.0873,-0.0919,-0.0932,-0.0959,-0.0938,-0.0803,-0.065,-0.0126,0.0386,0.0583,0.1013,0.0958,0.1107,0.1176,0.1196,0.1273,0.0806,0.0928,0.0928,0.0927,0.0927,0.0927,0,-0.0655,-0.0697,-0.0762,-0.0847,-0.0946,-0.0943,-0.1012,-0.1064,-0.1118,-0.1039,-0.0967,-0.0435,0.0084,0.059,0.1236,0.1451,0.1479,0.153,0.1592,0.1625,0.1231,0.1238,0.142,0.142,0.142,0.1419,0.1419,0.1419,-0.0677,-0.0746,-0.0786,-0.0961,-0.1033,-0.1159,-0.1207,-0.1263,-0.1231,-0.1097,-0.0833,-0.0598,0.0209,0.1287,0.1879,0.1902,0.2076,0.2019,0.2126,0.1877,0.1842,0.181,0.1837,0.2141,0.2142,0.248,0.2484,0.2487]}],[{"header":{"parameterUnit":"m.s-1","parameterCategory":2,"la1":30.2991,"la2":30.254,"lo1":-89.0895,"lo2":-89.0444,"dy":0.0017,"dx":0.0017,"nx":28,"ny":28,"refTime":"2024-05-12T09:00:00:Z","depth":"2","parameterNumber":2,"parameterNumberName":"U-component_of_CURRENTS"},"data":[0,0,0,0,0,0,0,0,0,0,0,0,0,0,0,0,0,0,0,0,0,0,0,0,0,0,0,0,0,0,0,0,0,0,0,0,0,0,0,0,0,0,0,0,0,0,0,0,0,0,0,0,0,0,0,0,0,0,-0.1525,-0.1526,0,-0.1557,-0.1558,-0.1558,-0.1555,-0.1555,-0.1555,-0.1555,-0.1559,-0.156,-0.156,0,0,0,0,0,0,0,0,0,0,0,0,0,-0.1436,-0.1437,-0.1525,-0.1526,-0.1527,-0.1557,-0.1558,-0.1558,-0.1555,-0.1555,-0.1555,-0.1555,-0.1559,-0.156,-0.156,0,0,0,0,0,0,0,0,0,0,0,0,0,-0.1469,-0.1438,-0.1525,-0.1531,-0.1532,-0.1557,-0.1558,-0.1558,-0.1555,-0.1555,-0.1555,-0.1554,-0.1559,-0.156,-0.156,-0.157,0,0,-0.1562,-0.1562,0,0,0,0,0,0,0,0,-0.1467,-0.1472,-0.153,-0.1531,-0.1532,-0.1554,-0.1528,-0.1562,-0.1556,-0.1544,-0.1555,-0.1554,-0.1557,-0.1558,-0.1561,-0.1571,-0.1571,-0.1562,-0.1562,-0.1562,-0.1562,0,0,0,0,0,0,0,-0.1465,-0.1471,-0.1535,-0.153,-0.1532,-0.1523,-0.1528,-0.1534,-0.1549,-0.1545,-0.1545,-0.1553,-0.1557,-0.1561,-0.1561,-0.1571,-0.1562,-0.1562,-0.1562,-0.1563,-0.1637,-0.1639,0,0,0,0,0,0,-0.1469,-0.1469,-0.1534,-0.1537,-0.1501,-0.1526,-0.153,-0.1545,-0.155,-0.1551,-0.1554,-0.1553,-0.156,-0.1561,-0.1561,-0.1594,-0.1562,-0.1563,-0.1563,-0.1635,-0.1637,-0.1639,0,0,0,0,0,0,-0.1467,-0.1475,-0.1533,-0.1505,-0.1512,-0.1528,-0.1545,-0.1546,-0.1553,-0.1558,-0.1558,-0.156,-0.156,-0.1561,-0.1579,-0.1594,-0.1563,-0.1563,-0.1633,-0.1636,-0.1638,-0.1647,0,0,0,0,0,0,-0.1464,-0.1474,-0.1482,-0.1506,-0.1514,-0.1552,-0.1545,-0.1547,-0.156,-0.156,-0.1563,-0.1563,-0.156,-0.1578,-0.158,-0.1594,-0.1564,-0.1631,-0.1635,-0.1637,-0.1645,-0.165,-0.1654,0,0,0,0,0,-0.1461,-0.1476,-0.1482,-0.149,-0.1526,-0.1553,-0.1556,-0.1564,-0.1561,-0.1567,-0.1575,-0.1563,-0.1599,-0.158,-0.1581,-0.1596,-0.163,-0.1634,-0.1637,-0.1643,-0.1649,-0.1654,0,0,0,0,0,0,-0.144,-0.1479,-0.1485,-0.1511,-0.1532,-0.1554,-0.1561,-0.1568,-0.1579,-0.1577,-0.1577,-0.1578,-0.1602,-0.1604,-0.1583,-0.1631,-0.1616,-0.162,-0.162,-0.1625,-0.163,-0.1622,-0.1564,0,0,0,0,0,-0.1441,-0.1462,-0.1494,-0.1513,-0.1525,-0.1543,-0.1553,-0.1562,-0.1578,-0.1582,-0.1588,-0.1601,-0.1619,-0.1625,-0.1639,-0.1659,-0.1671,-0.1675,-0.168,-0.1683,-0.1681,-0.1704,-0.171,-0.1651,-0.1651,-0.1651,0,0,-0.1437,-0.1461,-0.1472,-0.151,-0.1524,-0.1549,-0.1548,-0.1569,-0.1589,-0.1582,-0.1605,-0.1614,-0.163,-0.1655,-0.1666,-0.1657,-0.1714,-0.1688,-0.169,-0.1686,-0.1708,-0.1714,-0.1718,-0.1654,-0.1654,-0.1653,0,0,-0.1441,-0.1463,-0.1481,-0.1504,-0.1535,-0.1551,-0.156,-0.1587,-0.1597,-0.1625,-0.1629,-0.1646,-0.1671,-0.1684,-0.1694,-0.1735,-0.1738,-0.1747,-0.1759,-0.1781,-0.1785,-0.1789,-0.1839,-0.1846,-0.1748,-0.1748,-0.1748,0,-0.1433,-0.1465,-0.1489,-0.1515,-0.1535,-0.1555,-0.1579,-0.1598,-0.1627,-0.164,-0.1635,-0.1681,-0.1685,-0.1721,-0.1734,-0.1742,-0.1765,-0.173,-0.1784,-0.1788,-0.1792,-0.1841,-0.185,-0.1749,-0.1749,-0.1749,-0.1749,0,-0.1453,-0.1479,-0.1492,-0.1534,-0.1559,-0.1582,-0.1617,-0.1639,-0.1652,-0.1671,-0.1706,-0.1716,-0.174,-0.1751,-0.1751,-0.1787,-0.1801,-0.1785,-0.1762,-0.1797,-0.1849,-0.1857,-0.175,-0.175,-0.175,-0.175,0,0,-0.1428,-0.1493,-0.1496,-0.1518,-0.1571,-0.1592,-0.1633,-0.1673,-0.1705,-0.1721,-0.176,-0.1777,-0.1776,-0.1789,-0.1794,-0.1811,-0.186,-0.1808,-0.1809,-0.1843,-0.1935,-0.1942,-0.1953,-0.1848,-0.1849,-0.185,-0.197,0,-0.1432,-0.1477,-0.1514,-0.1555,-0.158,-0.1621,-0.1664,-0.1703,-0.1737,-0.1782,-0.1791,-0.1825,-0.1795,-0.1809,-0.182,-0.1853,-0.1879,-0.183,-0.1908,-0.1911,-0.19,-0.1961,-0.1771,-0.186,-0.1978,-0.1979,-0.1981,0,-0.1433,-0.1465,-0.1503,-0.1572,-0.1588,-0.1617,-0.1685,-0.1724,-0.1792,-0.1819,-0.1844,-0.1865,-0.1895,-0.1864,-0.1919,-0.189,-0.1912,-0.1932,-0.1936,-0.194,-0.1933,-0.1841,-0.1872,-0.1995,-0.1994,-0.1993,-0.1992,0,-0.1392,-0.1456,-0.1483,-0.1505,-0.1586,-0.1611,-0.1651,-0.1725,-0.1768,-0.1835,-0.1883,-0.1913,-0.1948,-0.1961,-0.1993,-0.1961,-0.2069,-0.203,-0.2062,-0.2065,-0.1916,-0.1904,-0.2071,-0.207,-0.207,-0.207,-0.2069,0,-0.1378,-0.14,-0.1463,-0.1478,-0.1521,-0.1583,-0.1641,-0.1689,-0.1774,-0.1842,-0.1885,-0.1951,-0.1971,-0.2036,-0.2036,-0.2091,-0.2101,-0.2083,-0.2095,-0.192,-0.1907,-0.2022,-0.2014,-0.2074,-0.2073,-0.2072,-0.2072,0,-0.1327,-0.137,-0.1404,-0.1477,-0.1501,-0.1524,-0.1624,-0.1674,-0.1757,-0.1853,-0.1876,-0.1991,-0.2076,-0.2115,-0.2176,-0.2163,-0.2201,-0.2216,-0.2029,-0.2017,-0.2174,-0.2167,-0.2266,-0.2267,-0.2268,-0.2269,-0.227,0,-0.1306,-0.1314,-0.1382,-0.1405,-0.1435,-0.1489,-0.154,-0.1637,-0.1705,-0.188,-0.193,-0.2056,-0.2142,-0.2253,-0.2246,-0.2279,-0.2273,-0.2123,-0.2016,-0.2192,-0.2195,-0.2185,-0.2176,-0.1837,-0.1834,-0.1832,-0.183,0,-0.1255,-0.1274,-0.13,-0.1349,-0.1393,-0.1456,-0.1538,-0.1591,-0.1731,-0.1832,-0.1985,-0.207,-0.22,-0.2165,-0.2214,-0.2182,-0.2097,-0.2081,-0.2308,-0.1822,-0.1798,-0.1797,-0.18,-0.1809,-0.1811,-0.1812,-0.1813,-0.1814,-0.1203,-0.1208,-0.1241,-0.1285,-0.134,-0.1406,-0.1433,-0.1553,-0.1653,-0.1795,-0.1948,-0.2033,-0.2059,-0.206,-0.2007,-0.1948,-0.2075,-0.1944,-0.1945,-0.1951,-0.1886,-0.1865,-0.1878,-0.188,-0.1882,-0.1884,-0.1886,0,-0.1134,-0.1152,-0.1185,-0.1232,-0.1265,-0.1321,-0.1418,-0.1435,-0.1529,-0.1696,-0.1823,-0.1741,-0.1765,-0.1778,-0.1683,-0.1693,-0.1609,-0.1593,-0.146,-0.1483,-0.1503,-0.1409,-0.1278,-0.1276,-0.1274,-0.1273,0,0,-0.1096,-0.1092,-0.1114,-0.1135,-0.1174,-0.1189,-0.122,-0.1264,-0.1346,-0.1418,-0.1486,-0.1703,-0.1752,-0.1524,-0.1472,-0.1362,-0.1394,-0.1292,-0.1779,-0.1644,-0.1662,-0.171,-0.1594,0,0,0,0,0]},{"header":{"parameterUnit":"m.s-1","parameterCategory":2,"la1":30.2991,"la2":30.254,"lo1":-89.0895,"lo2":-89.0444,"dy":0.0017,"dx":0.0017,"nx":28,"ny":28,"refTime":"2024-05-12T09:00:00:Z","depth":"2","parameterNumber":3,"parameterNumberName":"V-component_of_CURRENTS"},"data":[0,0,0,0,0,0,0,0,0,0,0,0,0,0,0,0,0,0,0,0,0,0,0,0,0,0,0,0,0,0,0,0,0,0,0,0,0,0,0,0,0,0,0,0,0,0,0,0,0,0,0,0,0,0,0,0,0,0,0.0009,0.0011,0,0.0126,0.0127,0.0129,0.0194,0.0194,0.0194,0.0195,0.0313,0.0316,0.0319,0,0,0,0,0,0,0,0,0,0,0,0,0,-0.0092,-0.0091,0.0009,0.0011,0.0012,0.0126,0.0127,0.0129,0.0194,0.0194,0.0195,0.0195,0.0312,0.0315,0.0319,0,0,0,0,0,0,0,0,0,0,0,0,0,-0.0018,-0.009,0.0009,0.0058,0.0063,0.0125,0.0128,0.013,0.0194,0.0194,0.0195,0.0195,0.0311,0.0315,0.0319,0.0343,0,0,0.0333,0.0335,0,0,0,0,0,0,0,0,-0.0023,-0.0015,0.0049,0.0054,0.0061,0.0145,0.0135,0.0201,0.0194,0.0145,0.0195,0.0195,0.0256,0.0265,0.0288,0.0349,0.0354,0.0334,0.0336,0.0338,0.034,0,0,0,0,0,0,0,-0.0028,-0.0019,0.0056,0.0051,0.0058,0.0096,0.0106,0.0148,0.0199,0.0149,0.0154,0.0166,0.0259,0.0283,0.0291,0.0356,0.0334,0.0338,0.034,0.0342,0.0439,0.0439,0,0,0,0,0,0,-0.0047,-0.0024,0.0053,0.006,0.0018,0.0097,0.0109,0.0118,0.0198,0.0211,0.0166,0.0169,0.0275,0.0286,0.0295,0.0323,0.0338,0.0343,0.0345,0.0439,0.0439,0.0439,0,0,0,0,0,0,-0.005,-0.0042,0.0048,0.002,0.0034,0.0098,0.0109,0.0121,0.0144,0.0211,0.0223,0.0177,0.0276,0.0289,0.033,0.0328,0.0345,0.0349,0.044,0.0439,0.0439,0.0381,0,0,0,0,0,0,-0.0054,-0.0044,-0.0046,0.0018,0.0035,0.0078,0.0109,0.0123,0.0151,0.0155,0.0224,0.0236,0.0277,0.0323,0.0334,0.0335,0.0352,0.044,0.0439,0.0439,0.0383,0.0379,0.0375,0,0,0,0,0,-0.0058,-0.0064,-0.0046,-0.0037,0.0031,0.0077,0.0089,0.0137,0.015,0.0159,0.0204,0.0233,0.0329,0.0327,0.034,0.0341,0.044,0.044,0.0439,0.0385,0.038,0.0376,0,0,0,0,0,0,-0.0107,-0.0056,-0.0036,-0.0026,0.0019,0.0088,0.01,0.0131,0.0174,0.0177,0.0237,0.0251,0.0284,0.032,0.0316,0.0368,0.0388,0.039,0.0342,0.0337,0.0334,0.0326,0.0356,0,0,0,0,0,-0.0121,-0.0111,-0.0054,-0.0044,-0.0026,0.0035,0.0058,0.009,0.0139,0.0159,0.0207,0.0254,0.0294,0.032,0.036,0.0393,0.0425,0.0401,0.0397,0.0394,0.0396,0.0438,0.0438,0.0438,0.0438,0.0438,0,0,-0.0137,-0.0107,-0.0101,-0.0054,-0.0015,0.0008,0.005,0.0081,0.0101,0.0164,0.02,0.0241,0.0298,0.0333,0.0351,0.0364,0.0409,0.0393,0.039,0.0395,0.0437,0.0437,0.0437,0.0438,0.0438,0.0438,0,0,-0.0164,-0.0138,-0.014,-0.0105,-0.0055,-0.0017,-0.0013,0.005,0.0078,0.0118,0.0164,0.0205,0.0268,0.0313,0.0342,0.0341,0.0382,0.0348,0.033,0.0369,0.037,0.037,0.0401,0.0405,0.0351,0.0351,0.0351,0,-0.0187,-0.0176,-0.0132,-0.0119,-0.0095,-0.0035,-0.0026,0.0013,0.0081,0.0104,0.0118,0.0215,0.026,0.0312,0.0311,0.0333,0.0357,0.0341,0.0364,0.0365,0.0367,0.0398,0.0403,0.0348,0.0348,0.0348,0.0349,0,-0.0205,-0.0198,-0.0194,-0.0159,-0.013,-0.0112,-0.0054,-0.0027,0.0009,0.0054,0.0107,0.0173,0.0232,0.025,0.0283,0.0318,0.0331,0.0348,0.0373,0.0363,0.0397,0.0403,0.0344,0.0345,0.0346,0.0346,0,0,-0.0251,-0.0218,-0.0216,-0.0212,-0.015,-0.0131,-0.01,-0.0051,-0.0035,0.0032,0.0062,0.0138,0.0176,0.0212,0.026,0.03,0.0329,0.0324,0.0328,0.0349,0.0409,0.0439,0.0449,0.0347,0.0348,0.0349,0.0424,0,-0.0279,-0.0279,-0.0247,-0.0245,-0.0238,-0.0179,-0.0157,-0.0104,-0.0054,-0.0012,0.0067,0.0111,0.0162,0.0183,0.0233,0.0307,0.0345,0.0307,0.042,0.0424,0.0448,0.0457,0.0407,0.0472,0.0431,0.0432,0.0432,0,-0.0303,-0.03,-0.0307,-0.0291,-0.0283,-0.0271,-0.0225,-0.0198,-0.0119,-0.0083,-0.0014,0.005,0.013,0.0161,0.0293,0.0264,0.0329,0.0386,0.039,0.0445,0.0466,0.0478,0.0486,0.0444,0.0443,0.0442,0.0441,0,-0.0351,-0.0343,-0.0356,-0.0344,-0.0312,-0.0306,-0.0287,-0.0218,-0.0204,-0.0125,-0.0109,0.0006,0.0051,0.0159,0.0289,0.0287,0.0424,0.0438,0.0527,0.053,0.0525,0.0526,0.0519,0.0519,0.0519,0.0518,0.0518,0,-0.0387,-0.0398,-0.0384,-0.0388,-0.0408,-0.036,-0.0366,-0.0326,-0.0278,-0.0273,-0.0154,-0.0122,0.005,0.0156,0.0273,0.0426,0.0416,0.053,0.0556,0.0503,0.0501,0.0509,0.0506,0.0521,0.0521,0.052,0.0519,0,-0.0431,-0.0422,-0.0442,-0.043,-0.0431,-0.0443,-0.0436,-0.0442,-0.0383,-0.0374,-0.0356,-0.0217,-0.0073,0.0103,0.0282,0.0398,0.0543,0.0593,0.0518,0.0535,0.0624,0.0618,0.0706,0.0708,0.071,0.0711,0.0712,0,-0.0455,-0.0468,-0.0483,-0.0511,-0.051,-0.0525,-0.0542,-0.05,-0.0505,-0.0436,-0.0439,-0.0294,-0.0196,0.0101,0.034,0.0567,0.0567,0.0645,0.0644,0.063,0.0646,0.0638,0.063,0.0608,0.0608,0.0608,0.0608,0,-0.0499,-0.0503,-0.0522,-0.0582,-0.0616,-0.0657,-0.0673,-0.0692,-0.0651,-0.0638,-0.0588,-0.0502,-0.019,0.0072,0.0394,0.0516,0.0613,0.0656,0.0665,0.0571,0.0545,0.0558,0.0552,0.0609,0.0609,0.0609,0.0609,0.0609,-0.0532,-0.0562,-0.0597,-0.0657,-0.0713,-0.0784,-0.083,-0.0842,-0.0867,-0.0844,-0.0721,-0.0576,-0.0267,0.0181,0.0425,0.0661,0.0658,0.0703,0.0699,0.0696,0.0675,0.0653,0.0733,0.0733,0.0734,0.0734,0.0735,0,-0.0567,-0.061,-0.0675,-0.0758,-0.0854,-0.0854,-0.092,-0.0962,-0.1011,-0.094,-0.0872,-0.0559,-0.0214,0.0115,0.0499,0.0727,0.0705,0.0743,0.0675,0.0672,0.067,0.0645,0.0696,0.0697,0.0698,0.0698,0,0,-0.0589,-0.0658,-0.0697,-0.0865,-0.0938,-0.1058,-0.1104,-0.1143,-0.111,-0.1077,-0.0941,-0.0693,-0.0253,0.0014,0.0309,0.0512,0.0516,0.0515,0.0515,0.0391,0.0386,0.0614,0.0569,0,0,0,0,0]}],[{"header":{"parameterUnit":"m.s-1","parameterCategory":2,"la1":30.2991,"la2":30.254,"lo1":-89.0895,"lo2":-89.0444,"dy":0.0017,"dx":0.0017,"nx":28,"ny":28,"refTime":"2024-05-12T09:00:00:Z","depth":"4","parameterNumber":2,"parameterNumberName":"U-component_of_CURRENTS"},"data":[0,0,0,0,0,0,0,0,0,0,0,0,0,0,0,0,0,0,0,0,0,0,0,0,0,0,0,0,0,0,0,0,0,0,0,0,0,0,0,0,0,0,0,0,0,0,0,0,0,0,0,0,0,0,0,0,0,0,-0.1061,-0.1062,0,-0.112,-0.112,-0.112,-0.1153,-0.1154,-0.1154,-0.1154,-0.118,-0.118,-0.1181,0,0,0,0,0,0,0,0,0,0,0,0,0,-0.0953,-0.0955,-0.1061,-0.1062,-0.1063,-0.1119,-0.112,-0.1121,-0.1153,-0.1154,-0.1154,-0.1155,-0.118,-0.118,-0.1181,0,0,0,0,0,0,0,0,0,0,0,0,0,-0.1002,-0.0956,-0.1061,-0.1088,-0.1091,-0.1119,-0.112,-0.1121,-0.1153,-0.1154,-0.1154,-0.1155,-0.118,-0.118,-0.1181,-0.1174,0,0,-0.1182,-0.1183,0,0,0,0,0,0,0,0,-0.1,-0.1006,-0.1083,-0.1086,-0.109,-0.1132,-0.1092,-0.1138,-0.1153,-0.1127,-0.1154,-0.1155,-0.1162,-0.1164,-0.1171,-0.1175,-0.1176,-0.1182,-0.1183,-0.1183,-0.1183,0,0,0,0,0,0,0,-0.0996,-0.1004,-0.1082,-0.1084,-0.1088,-0.1089,-0.1096,-0.11,-0.1138,-0.1129,-0.1133,-0.1143,-0.1163,-0.117,-0.1172,-0.1177,-0.1182,-0.1183,-0.1183,-0.1183,-0.1201,-0.1201,0,0,0,0,0,0,-0.0995,-0.1001,-0.108,-0.1084,-0.1048,-0.1091,-0.1099,-0.1116,-0.1139,-0.1144,-0.1142,-0.1144,-0.1169,-0.1171,-0.1173,-0.1211,-0.1183,-0.1183,-0.1184,-0.1201,-0.1201,-0.1201,0,0,0,0,0,0,-0.0993,-0.1002,-0.1077,-0.1045,-0.1055,-0.1093,-0.1111,-0.1117,-0.1145,-0.115,-0.1154,-0.1168,-0.117,-0.1172,-0.1191,-0.121,-0.1184,-0.1184,-0.1201,-0.1201,-0.1201,-0.1258,0,0,0,0,0,0,-0.0989,-0.1001,-0.1018,-0.1045,-0.1057,-0.1108,-0.1111,-0.1118,-0.1151,-0.1154,-0.1172,-0.1174,-0.117,-0.1191,-0.1192,-0.121,-0.1185,-0.12,-0.1201,-0.1201,-0.1256,-0.126,-0.1263,0,0,0,0,0,-0.0985,-0.1006,-0.1018,-0.1028,-0.1078,-0.1109,-0.1116,-0.1141,-0.1152,-0.1168,-0.1178,-0.1175,-0.1193,-0.1192,-0.1193,-0.1212,-0.12,-0.1201,-0.1201,-0.1254,-0.1259,-0.1263,0,0,0,0,0,0,-0.0968,-0.1012,-0.1026,-0.106,-0.1089,-0.1116,-0.1136,-0.1153,-0.1175,-0.1182,-0.1183,-0.1185,-0.1206,-0.1197,-0.1196,-0.1214,-0.1193,-0.1194,-0.1233,-0.1238,-0.1241,-0.1254,-0.1185,0,0,0,0,0,-0.0972,-0.1001,-0.1038,-0.1066,-0.1083,-0.1113,-0.1132,-0.1151,-0.1172,-0.1184,-0.1198,-0.1203,-0.1204,-0.1214,-0.1212,-0.1229,-0.1238,-0.1238,-0.1242,-0.1245,-0.1254,-0.1278,-0.1286,-0.1202,-0.1202,-0.1202,0,0,-0.0972,-0.1002,-0.1018,-0.1065,-0.1089,-0.1119,-0.1126,-0.1163,-0.119,-0.1181,-0.1223,-0.122,-0.1209,-0.1226,-0.1234,-0.1227,-0.1276,-0.1246,-0.1249,-0.1256,-0.128,-0.1288,-0.1296,-0.1202,-0.1202,-0.1202,0,0,-0.0982,-0.1016,-0.1041,-0.107,-0.1116,-0.1135,-0.1151,-0.1191,-0.1214,-0.1247,-0.1242,-0.1255,-0.1266,-0.1265,-0.1263,-0.1286,-0.1293,-0.1281,-0.132,-0.1343,-0.1351,-0.1358,-0.1396,-0.1406,-0.1287,-0.1288,-0.1288,0,-0.0981,-0.1021,-0.1052,-0.1085,-0.1113,-0.1145,-0.1177,-0.1203,-0.1246,-0.1265,-0.1266,-0.1289,-0.1284,-0.1301,-0.1307,-0.1298,-0.1317,-0.1307,-0.1351,-0.1358,-0.1364,-0.1401,-0.1411,-0.129,-0.129,-0.129,-0.1289,0,-0.1005,-0.1045,-0.1064,-0.1117,-0.1149,-0.1183,-0.1224,-0.1258,-0.1287,-0.1311,-0.1345,-0.1343,-0.1355,-0.1353,-0.134,-0.1375,-0.1378,-0.1353,-0.1346,-0.1377,-0.1413,-0.1423,-0.1294,-0.1293,-0.1292,-0.1292,0,0,-0.0979,-0.1064,-0.1072,-0.1105,-0.1172,-0.1198,-0.1249,-0.1298,-0.1337,-0.137,-0.1416,-0.1416,-0.1421,-0.1417,-0.1406,-0.143,-0.1491,-0.1417,-0.1417,-0.1467,-0.1564,-0.1474,-0.1476,-0.148,-0.1481,-0.1483,-0.1579,0,-0.0988,-0.105,-0.1094,-0.1154,-0.1187,-0.124,-0.1286,-0.1336,-0.1378,-0.1431,-0.1441,-0.147,-0.1443,-0.1454,-0.1475,-0.1481,-0.1516,-0.1468,-0.1516,-0.1518,-0.1443,-0.1483,-0.1487,-0.1587,-0.1589,-0.159,-0.1591,0,-0.099,-0.1035,-0.1094,-0.118,-0.12,-0.1242,-0.1323,-0.1366,-0.144,-0.1474,-0.151,-0.1526,-0.156,-0.1533,-0.1581,-0.1554,-0.1569,-0.1578,-0.1581,-0.1482,-0.1444,-0.1543,-0.1609,-0.1607,-0.1606,-0.1605,-0.1604,0,-0.0944,-0.1033,-0.108,-0.1109,-0.1207,-0.1247,-0.1296,-0.1377,-0.142,-0.1499,-0.1545,-0.1584,-0.1614,-0.1634,-0.1649,-0.1624,-0.1713,-0.1674,-0.1615,-0.161,-0.164,-0.1631,-0.1724,-0.1724,-0.1723,-0.1723,-0.1723,0,-0.0926,-0.0966,-0.1065,-0.109,-0.1152,-0.1225,-0.1296,-0.1351,-0.1439,-0.1496,-0.1555,-0.1605,-0.1643,-0.1694,-0.1692,-0.1685,-0.1746,-0.1635,-0.1627,-0.1662,-0.1654,-0.1648,-0.1638,-0.1727,-0.1726,-0.1725,-0.1725,0,-0.0866,-0.0933,-0.0992,-0.1097,-0.1131,-0.117,-0.1285,-0.1334,-0.1424,-0.1504,-0.1532,-0.1635,-0.1694,-0.1737,-0.1785,-0.1732,-0.1738,-0.1725,-0.1791,-0.1783,-0.1615,-0.1606,-0.1664,-0.1661,-0.1659,-0.1657,-0.1656,0,-0.084,-0.0863,-0.0976,-0.1014,-0.1065,-0.114,-0.1195,-0.1301,-0.1357,-0.1511,-0.1542,-0.1648,-0.1705,-0.1714,-0.1752,-0.1763,-0.1735,-0.1735,-0.1641,-0.1621,-0.1609,-0.1603,-0.1598,-0.1653,-0.1652,-0.1652,-0.1651,0,-0.0781,-0.0828,-0.0876,-0.0952,-0.1016,-0.1086,-0.1174,-0.1206,-0.1337,-0.144,-0.1518,-0.1559,-0.1639,-0.1663,-0.1691,-0.1687,-0.1724,-0.1712,-0.1715,-0.1627,-0.1609,-0.1597,-0.1594,-0.1644,-0.1645,-0.1646,-0.1646,0,-0.0731,-0.0749,-0.0816,-0.0878,-0.0955,-0.1009,-0.107,-0.1152,-0.1217,-0.1389,-0.1415,-0.1533,-0.1632,-0.1628,-0.1651,-0.1642,-0.1604,-0.1537,-0.1548,-0.1557,-0.1471,-0.1429,-0.1414,0,0,0,0,0,-0.0674,-0.0691,-0.0741,-0.0806,-0.0882,-0.0927,-0.1048,-0.1117,-0.1252,-0.1274,-0.1339,-0.1407,-0.1454,-0.1512,-0.1479,-0.159,-0.16,-0.1543,-0.1526,-0.1604,-0.1613,-0.1518,0,0,0,0,0,0,-0.0637,-0.0672,-0.0706,-0.0731,-0.0762,-0.0834,-0.0907,-0.1004,-0.103,-0.1173,-0.1207,-0.1312,-0.1375,-0.1446,-0.1443,-0.146,-0.142,-0.1615,-0.1611,-0.16,-0.1607,-0.1614,-0.152,0,0,0,0,0]},{"header":{"parameterUnit":"m.s-1","parameterCategory":2,"la1":30.2991,"la2":30.254,"lo1":-89.0895,"lo2":-89.0444,"dy":0.0017,"dx":0.0017,"nx":28,"ny":28,"refTime":"2024-05-12T09:00:00:Z","depth":"4","parameterNumber":3,"parameterNumberName":"V-component_of_CURRENTS"},"data":[0,0,0,0,0,0,0,0,0,0,0,0,0,0,0,0,0,0,0,0,0,0,0,0,0,0,0,0,0,0,0,0,0,0,0,0,0,0,0,0,0,0,0,0,0,0,0,0,0,0,0,0,0,0,0,0,0,0,0.0077,0.0078,0,0.0168,0.0169,0.0171,0.0226,0.0226,0.0226,0.0226,0.0335,0.0338,0.0341,0,0,0,0,0,0,0,0,0,0,0,0,0,0.0008,0.0009,0.0077,0.0078,0.0079,0.0168,0.0169,0.0171,0.0226,0.0226,0.0226,0.0226,0.0334,0.0337,0.0341,0,0,0,0,0,0,0,0,0,0,0,0,0,0.0064,0.0009,0.0077,0.0116,0.0121,0.0168,0.017,0.0171,0.0226,0.0226,0.0226,0.0226,0.0333,0.0337,0.0341,0.0362,0,0,0.0354,0.0356,0,0,0,0,0,0,0,0,0.0061,0.0066,0.0109,0.0114,0.0118,0.0185,0.0185,0.0236,0.0226,0.0187,0.0226,0.0226,0.0286,0.0294,0.0312,0.0367,0.0372,0.0354,0.0357,0.0359,0.036,0,0,0,0,0,0,0,0.0057,0.0063,0.0114,0.011,0.0116,0.0149,0.0157,0.0195,0.0235,0.019,0.0194,0.0202,0.0288,0.0308,0.0315,0.0374,0.0354,0.0358,0.036,0.0362,0.0467,0.0467,0,0,0,0,0,0,0.004,0.0059,0.0111,0.0117,0.0088,0.015,0.0159,0.0164,0.0235,0.0245,0.0202,0.0205,0.03,0.031,0.0319,0.0353,0.0359,0.0362,0.0365,0.0467,0.0467,0.0468,0,0,0,0,0,0,0.0038,0.0043,0.0108,0.0089,0.01,0.015,0.0157,0.0166,0.0187,0.0243,0.0254,0.0213,0.0301,0.0313,0.0354,0.0357,0.0364,0.0368,0.0466,0.0467,0.0467,0.0417,0,0,0,0,0,0,0.0035,0.0042,0.004,0.0088,0.01,0.0131,0.0157,0.0167,0.0191,0.0195,0.0256,0.0266,0.0302,0.0347,0.0358,0.0363,0.0371,0.0466,0.0467,0.0467,0.0418,0.0416,0.0413,0,0,0,0,0,0.0032,0.0026,0.0039,0.0045,0.0095,0.0131,0.014,0.0178,0.019,0.0198,0.024,0.0264,0.0359,0.0351,0.0363,0.0369,0.0466,0.0466,0.0467,0.0419,0.0416,0.0413,0,0,0,0,0,0,-0.0002,0.0033,0.0047,0.0053,0.0087,0.0139,0.0149,0.0174,0.0214,0.0217,0.027,0.0283,0.0319,0.0352,0.0342,0.0402,0.0416,0.0419,0.0375,0.0373,0.037,0.0355,0.0375,0,0,0,0,0,-0.0012,-0.0008,0.0034,0.0039,0.0052,0.0099,0.0118,0.0143,0.0184,0.0202,0.0245,0.0291,0.0332,0.0357,0.0396,0.043,0.0451,0.0442,0.044,0.0438,0.0434,0.0465,0.0464,0.047,0.047,0.047,0,0,-0.0024,-0.0004,-0.0001,0.0032,0.0061,0.0078,0.0111,0.0136,0.0153,0.0208,0.0242,0.0283,0.0338,0.0375,0.0394,0.0403,0.0447,0.0438,0.0436,0.0434,0.0466,0.0465,0.0464,0.047,0.047,0.047,0,0,-0.0045,-0.0027,-0.0031,-0.0006,0.003,0.006,0.0063,0.0112,0.0137,0.0173,0.0217,0.0258,0.032,0.0363,0.0392,0.0401,0.043,0.0413,0.0393,0.0423,0.0423,0.0422,0.0442,0.0444,0.0415,0.0415,0.0415,0,-0.006,-0.0057,-0.0025,-0.0017,-0.0001,0.0047,0.0052,0.0085,0.0142,0.0161,0.0176,0.0269,0.0315,0.0366,0.0371,0.0395,0.0411,0.0397,0.0418,0.0419,0.0419,0.044,0.0442,0.0413,0.0413,0.0413,0.0414,0,-0.0076,-0.0075,-0.0073,-0.005,-0.0028,-0.0016,0.003,0.0053,0.0084,0.0122,0.0172,0.0236,0.0291,0.0315,0.0347,0.038,0.0388,0.0406,0.042,0.0415,0.0437,0.0441,0.041,0.041,0.0411,0.0412,0,0,-0.0108,-0.0092,-0.0091,-0.0091,-0.0045,-0.0032,-0.0006,0.0032,0.0044,0.0104,0.0126,0.0207,0.0239,0.0274,0.0324,0.0356,0.0376,0.0378,0.0381,0.0387,0.0431,0.0412,0.0415,0.0393,0.0394,0.0394,0.0442,0,-0.013,-0.0138,-0.0117,-0.012,-0.0118,-0.0073,-0.0055,-0.0014,0.0028,0.0061,0.0134,0.0174,0.0226,0.0247,0.0289,0.0357,0.0385,0.0361,0.0444,0.0446,0.0422,0.0418,0.0396,0.0444,0.0445,0.0446,0.0447,0,-0.0149,-0.0152,-0.0165,-0.0161,-0.0157,-0.015,-0.0119,-0.0097,-0.0035,-0.0005,0.0053,0.011,0.0181,0.0213,0.0324,0.0304,0.0358,0.0408,0.0411,0.0414,0.0435,0.0455,0.0454,0.0453,0.0453,0.0452,0.0452,0,-0.0182,-0.0186,-0.0203,-0.0197,-0.0181,-0.0181,-0.0169,-0.0117,-0.0109,-0.0047,-0.0037,0.0062,0.0101,0.0192,0.0306,0.0311,0.0413,0.0435,0.047,0.0469,0.0494,0.0494,0.0496,0.0496,0.0496,0.0496,0.0496,0,-0.0206,-0.0221,-0.0226,-0.0232,-0.0258,-0.0225,-0.024,-0.0211,-0.0178,-0.0179,-0.0079,-0.0055,0.0094,0.0179,0.0282,0.0386,0.0398,0.0462,0.048,0.0471,0.0468,0.0496,0.0495,0.0498,0.0497,0.0497,0.0497,0,-0.0232,-0.0236,-0.0262,-0.0268,-0.0275,-0.0291,-0.0301,-0.0313,-0.0271,-0.027,-0.0257,-0.0145,-0.0033,0.0114,0.0264,0.0343,0.0453,0.0484,0.0454,0.0471,0.0494,0.0491,0.0525,0.0525,0.0525,0.0524,0.0524,0,-0.0245,-0.0261,-0.0295,-0.0327,-0.0335,-0.036,-0.0384,-0.0361,-0.0369,-0.0325,-0.0329,-0.0223,-0.0137,0.0058,0.0222,0.0413,0.044,0.0492,0.0504,0.0483,0.0497,0.0494,0.0491,0.0524,0.0524,0.0524,0.0524,0,-0.0268,-0.0285,-0.0309,-0.0376,-0.0418,-0.0465,-0.049,-0.0505,-0.0483,-0.0451,-0.0398,-0.0279,-0.0155,0.0033,0.018,0.0321,0.046,0.049,0.0492,0.0504,0.0482,0.0496,0.0493,0.0523,0.0523,0.0523,0.0523,0,-0.0286,-0.0316,-0.0361,-0.042,-0.0488,-0.0553,-0.0559,-0.0566,-0.0566,-0.0505,-0.0489,-0.0334,-0.023,-0.0015,0.0124,0.026,0.0299,0.034,0.035,0.0353,0.0297,0.0243,0.022,0,0,0,0,0,-0.0295,-0.0341,-0.0405,-0.048,-0.0555,-0.0593,-0.0627,-0.0621,-0.0597,-0.058,-0.0534,-0.0415,-0.0198,-0.0084,0.0045,0.0126,0.0325,0.0281,0.0376,0.0519,0.052,0.0483,0,0,0,0,0,0,-0.0307,-0.0365,-0.0407,-0.0523,-0.0588,-0.0669,-0.0695,-0.0679,-0.0649,-0.0601,-0.0481,-0.0399,-0.0177,-0.0284,0.0039,0.0086,0.0161,0.0398,0.04,0.0518,0.0519,0.052,0.0482,0,0,0,0,0]}]]